Paynesville, MN

7:03 AM CDT on September 29, 2016 (GMT -0500)
Paynesville

Weather History for KPEX - December, 2013

Change the Weather History Date:

Monday, December 16, 2013

  Actual Average (KLJF) Record (KLJF)
Temperature  
Mean Temperature 15 °F -  
Max Temperature 29 °F 26 °F 47 °F (1959)
Min Temperature 1 °F 8 °F -20 °F (1963)
Degree Days  
Heating Degree Days 50    
Moisture  
Dew Point 7 °F    
Average Humidity 83    
Maximum Humidity 93    
Minimum Humidity 67    
Precipitation  
Precipitation 0.00 in - - ()
Sea Level Pressure  
Sea Level Pressure 29.94 in    
Wind  
Wind Speed 7 mph (SSW)    
Max Wind Speed 17 mph    
Max Gust Speed 18 mph    
Visibility 8 miles    
Events Snow    
Averages and records for this station are not official NWS values.
T = Trace of Precipitation, MM = Missing Value Source: NWS Daily Summary

Daily Weather History Graph

Daily Weather History Graph

Search for Another Location

Airport or City:

Trip Planner

Search our weather history database for the weather conditions in past years. The results will help you decide how hot, cold, wet, or windy it might be!

Date:

Astronomy

Dec. 16, 2013 Rise Set
Actual Time 7:52 AM CST 4:36 PM CST
Civil Twilight 7:18 AM CST 5:11 PM CST
Nautical Twilight 6:41 AM CST 5:48 PM CST
Astronomical Twilight 6:05 AM CST 6:24 PM CST
Moon 4:30 PM CST (12/16) 6:59 AM CST (12/16)
Length of Visible Light 9h 52m
Length of Day
8h 44m
Full, 100% of the Moon is Illuminated
Dec 16
Full
Dec 17
Full
Dec 25
Last Quarter
Jan 1
New
Jan 7
First Quarter

Hourly Weather History & Observations

Time (CST) Temp. Windchill Dew Point Humidity Pressure Visibility Wind Dir Wind Speed Gust Speed Precip Events Conditions
12:12 AM 1.4 °F -9.9 °F -7.1 °F 68% 30.06 in 10.0 mi ESE 5.8 mph - N/A   Overcast
12:33 AM 1.2 °F -10.1 °F -7.6 °F 67% 30.05 in 10.0 mi ESE 5.8 mph - N/A   Overcast
12:53 AM 1.0 °F -11.7 °F -7.1 °F 69% 30.03 in 10.0 mi ESE 6.9 mph - N/A   Overcast
1:13 AM 1.2 °F -10.1 °F -6.9 °F 69% 30.04 in 10.0 mi SE 5.8 mph - N/A   Overcast
1:33 AM 1.4 °F -12.5 °F -6.7 °F 69% 30.02 in 10.0 mi SE 8.1 mph - N/A   Overcast
1:52 AM 1.2 °F -12.7 °F -6.2 °F 71% 30.02 in 10.0 mi SSE 8.1 mph - N/A   Overcast
2:12 AM 1.2 °F -13.7 °F -6.0 °F 72% 30.01 in 10.0 mi SSE 9.2 mph - N/A   Overcast
2:33 AM 1.6 °F -13.3 °F -5.1 °F 74% 30.01 in 10.0 mi SE 9.2 mph - N/A Snow Light Snow
2:52 AM 1.9 °F -9.2 °F -4.4 °F 75% 30.02 in 10.0 mi SSE 5.8 mph - N/A Snow Light Snow
3:12 AM 1.9 °F -10.6 °F -4.0 °F 76% 30.01 in 7.0 mi SSE 6.9 mph - N/A Snow Light Snow
3:33 AM 2.3 °F -7.2 °F -3.5 °F 77% 30.01 in 10.0 mi SSE 4.6 mph - N/A   Overcast
3:53 AM 2.8 °F -9.5 °F -3.1 °F 76% 30.00 in 10.0 mi SSE 6.9 mph - N/A   Overcast
4:12 AM 3.2 °F -10.3 °F -2.2 °F 78% 29.97 in 10.0 mi South 8.1 mph - N/A   Overcast
4:33 AM 3.6 °F -10.9 °F -1.7 °F 79% 29.97 in 10.0 mi SSE 9.2 mph - N/A   Overcast
4:52 AM 3.7 °F -10.6 °F -1.3 °F 80% 29.95 in 10.0 mi SSE 9.2 mph - N/A   Overcast
5:13 AM 3.9 °F -8.2 °F -0.9 °F 80% 29.95 in 10.0 mi SSE 6.9 mph - N/A   Overcast
5:33 AM 4.1 °F -6.7 °F -0.6 °F 81% 29.96 in 5.0 mi SSE 5.8 mph - N/A Snow Light Snow
5:52 AM 4.1 °F -5.1 °F 0.1 °F 84% 29.97 in 1.2 mi SSE 4.6 mph - N/A Snow Light Snow
6:13 AM 4.5 °F -8.7 °F 0.5 °F 84% 29.94 in 2.5 mi SE 8.1 mph - N/A Snow Light Snow
6:33 AM 4.6 °F -4.5 °F 0.5 °F 83% 29.95 in 2.0 mi SSE 4.6 mph - N/A Snow Light Snow
6:52 AM 4.8 °F - 0.9 °F 84% 29.95 in 3.0 mi Calm Calm - N/A Snow Light Snow
7:13 AM 5.0 °F -4.1 °F 1.4 °F 85% 29.95 in 0.8 mi SSE 4.6 mph - N/A Snow Snow
7:32 AM 5.0 °F - 1.4 °F 85% 29.95 in 1.5 mi Calm Calm - N/A Snow Light Snow
7:53 AM 5.5 °F -5.0 °F 2.1 °F 86% 29.94 in 5.0 mi SSE 5.8 mph - N/A Snow Light Snow
8:12 AM 5.7 °F -1.3 °F 2.1 °F 85% 29.95 in 10.0 mi South 3.5 mph - N/A   Overcast
8:33 AM 6.3 °F -0.7 °F 2.3 °F 84% 29.94 in 10.0 mi SSE 3.5 mph - N/A Snow Light Snow
8:53 AM 6.6 °F -3.7 °F 2.8 °F 84% 29.93 in 7.0 mi SSE 5.8 mph - N/A Snow Light Snow
9:12 AM 6.8 °F -5.9 °F 3.2 °F 85% 29.93 in 7.0 mi SSE 8.1 mph - N/A Snow Light Snow
9:33 AM 7.5 °F -9.7 °F 3.7 °F 85% 29.89 in 3.0 mi SSE 15.0 mph - N/A Snow Light Snow
9:53 AM 8.2 °F -5.1 °F 4.3 °F 84% 29.93 in 4.0 mi South 9.2 mph - N/A Snow Light Snow
10:12 AM 8.6 °F -4.7 °F 5.0 °F 85% 29.95 in 1.8 mi SSW 9.2 mph - N/A Snow Light Snow
10:33 AM 9.5 °F 1.2 °F 5.9 °F 85% 29.94 in 0.8 mi SSW 4.6 mph - N/A Snow Light Snow
10:53 AM 10.8 °F -1.1 °F 6.6 °F 83% 29.94 in 2.5 mi SSW 8.1 mph - N/A Snow Light Snow
11:13 AM 10.9 °F -2.6 °F 6.8 °F 83% 29.93 in 7.0 mi SSW 10.4 mph - N/A Snow Light Snow
11:32 AM 12.0 °F -1.3 °F 7.7 °F 83% 29.93 in 7.0 mi SSW 10.4 mph - N/A Snow Light Snow
11:53 AM 12.4 °F 0.9 °F 8.1 °F 83% 29.91 in 7.0 mi SSW 8.1 mph - N/A   Overcast
12:12 PM 13.1 °F 1.8 °F 8.6 °F 82% 29.91 in 5.0 mi SSW 8.1 mph - N/A Snow Light Snow
12:33 PM 13.8 °F 3.7 °F 9.5 °F 83% 29.91 in 4.0 mi SW 6.9 mph - N/A Snow Light Snow
12:52 PM 14.9 °F 3.1 °F 10.6 °F 83% 29.91 in 7.0 mi WSW 9.2 mph - N/A   Overcast
1:13 PM 15.6 °F 4.9 °F 11.3 °F 83% 29.91 in 7.0 mi SW 8.1 mph - N/A   Overcast
1:32 PM 16.3 °F 4.1 °F 12.2 °F 84% 29.91 in 7.0 mi WSW 10.4 mph - N/A   Overcast
1:53 PM 17.1 °F 5.8 °F 13.1 °F 84% 29.91 in 7.0 mi WSW 9.2 mph - N/A   Overcast
2:12 PM 18.5 °F 6.8 °F 14.7 °F 85% 29.92 in 7.0 mi West 10.4 mph - N/A   Overcast
2:32 PM 18.9 °F 6.5 °F 14.4 °F 83% 29.91 in 7.0 mi West 11.5 mph - N/A   Scattered Clouds
2:53 PM 19.4 °F 8.6 °F 14.7 °F 82% 29.91 in 10.0 mi WSW 9.2 mph - N/A   Clear
3:12 PM 19.2 °F 11.3 °F 14.0 °F 80% 29.92 in 10.0 mi WSW 5.8 mph - N/A   Clear
3:33 PM 18.3 °F 10.2 °F 13.1 °F 80% 29.92 in 10.0 mi SW 5.8 mph - N/A   Clear
3:53 PM 17.8 °F 10.9 °F 12.9 °F 81% 29.92 in 10.0 mi SW 4.6 mph - N/A   Clear
4:13 PM 16.2 °F 7.6 °F 11.7 °F 82% 29.93 in 10.0 mi SW 5.8 mph - N/A   Clear
4:32 PM 15.6 °F 7.0 °F 11.7 °F 84% 29.93 in 10.0 mi SW 5.8 mph - N/A   Clear
4:52 PM 15.6 °F 7.0 °F 12.0 °F 86% 29.92 in 10.0 mi WSW 5.8 mph - N/A   Clear
5:13 PM 13.1 °F 0.9 °F 10.9 °F 91% 29.93 in 10.0 mi WSW 9.2 mph - N/A   Clear
5:33 PM 14.7 °F 2.9 °F 11.7 °F 88% 29.93 in 10.0 mi SW 9.2 mph - N/A   Clear
5:53 PM 16.7 °F 7.2 °F 14.0 °F 89% 29.92 in 10.0 mi SW 6.9 mph - N/A   Clear
6:12 PM 14.2 °F - 11.3 °F 88% 29.92 in 10.0 mi Calm Calm - N/A   Clear
6:33 PM 11.8 °F - 9.5 °F 90% 29.91 in 7.0 mi Calm Calm - N/A   Clear
6:53 PM 11.5 °F -0.2 °F 9.3 °F 91% 29.91 in 7.0 mi WSW 8.1 mph - N/A   Clear
7:13 PM 10.9 °F -1.8 °F 8.8 °F 91% 29.91 in 7.0 mi WSW 9.2 mph - N/A   Clear
7:32 PM 9.5 °F -1.5 °F 7.5 °F 92% 29.90 in 7.0 mi WSW 6.9 mph - N/A   Clear
7:52 PM 11.3 °F -1.3 °F 9.3 °F 92% 29.90 in 10.0 mi WSW 9.2 mph - N/A   Clear
8:13 PM 14.7 °F 1.4 °F 12.9 °F 93% 29.90 in 10.0 mi West 11.5 mph - N/A   Clear
8:32 PM 17.1 °F 5.0 °F 14.9 °F 91% 29.90 in 10.0 mi West 10.4 mph - N/A   Clear
8:53 PM 18.5 °F 6.8 °F 16.3 °F 91% 29.90 in 10.0 mi WSW 10.4 mph - N/A   Clear
9:13 PM 19.4 °F 7.9 °F 17.1 °F 91% 29.90 in 10.0 mi WSW 10.4 mph - N/A   Clear
9:32 PM 22.6 °F 10.7 °F 19.9 °F 89% 29.89 in 10.0 mi WSW 12.7 mph - N/A   Scattered Clouds
9:53 PM 24.8 °F 12.9 °F 20.7 °F 84% 29.89 in 10.0 mi West 13.8 mph 18.4 mph N/A   Scattered Clouds
10:13 PM 26.4 °F 15.5 °F 21.9 °F 83% 29.89 in 10.0 mi WSW 12.7 mph - N/A   Mostly Cloudy
10:33 PM 28.6 °F 16.8 °F 23.5 °F 81% 29.88 in 10.0 mi WSW 16.1 mph - N/A   Overcast
10:52 PM 29.1 °F 17.9 °F 23.9 °F 81% 29.88 in 10.0 mi WSW 15.0 mph - N/A   Overcast
11:12 PM 29.3 °F 18.6 °F 24.3 °F 81% 29.89 in 10.0 mi WSW 13.8 mph - N/A   Overcast
11:53 PM 29.7 °F 17.8 °F 24.6 °F 81% 29.88 in 10.0 mi West 17.3 mph - N/A   Scattered Clouds